QPF
0.02 0.02 0.02 0.02 0.03 0.04 0.05 0.04 0.03 0.02 0.02 0.01 0.01 0.03 0.03 0.04 0.07 0.06 0.06 0.07 0.07 0.07 0.06 0.06 0.06 0.06 0.05 0.06 0.05 0.05 0.05 0.06 0.07 0.07 0.07 0.07 0.07 0.08
0.01 0.02 0.03 0.03 0.03 0.03 0.04 0.04 0.03 0.03 0.02 0.01 0.02 0.02 0.03 0.04 0.07 0.07 0.07 0.08 0.06 0.05 0.06 0.05 0.05 0.04 0.04 0.04 0.04 0.04 0.04 0.05 0.05 0.05 0.06 0.06 0.06 0.06
0.03 0.03 0.03 0.04 0.03 0.03 0.02 0.03 0.03 0.03 0.02 0.02 0.03 0.03 0.04 0.05 0.05 0.05 0.05 0.05 0.05 0.06 0.05 0.04 0.04 0.03 0.03 0.03 0.03 0.02 0.02 0.02 0.03 0.03 0.04 0.05 0.05 0.05
0.02 0.02 0.03 0.03 0.02 0.02 0.02 0.02 0.02 0.02 0.02 0.02 0.04 0.05 0.05 0.05 0.05 0.05 0.05 0.05 0.04 0.05 0.04 0.03 0.03 0.03 0.03 0.02 0.02 0.02 0.02 0.02 0.02 0.03 0.03 0.03 0.03 0.03
0.03 0.03 0.02 0.02 0.01 0.01 0.01 0.01 0.01 0.01 0.02 0.03 0.04 0.06 0.06 0.05 0.04 0.04 0.04 0.03 0.03 0.04 0.04 0.04 0.03 0.03 0.02 0.02 0.02 0.01 0.02 0.02 0.02 0.02 0.02 0.02 0.02 0.02
0.01 0.02 0.01 0.02 0.02 0.01 0.01 0.01 0.01 0.01 0.02 0.03 0.05 0.06 0.06 0.04 0.04 0.04 0.03 0.03 0.02 0.02 0.02 0.02 0.02 0.02 0.02 0.02 0.02 0.02 0.02 0.02 0.02 0.02 0.01 0.01 0.01 0.01
0.01 0.01 0.01 0.02 0.03 0.02 0.02 0.01 0.01 0.02 0.03 0.05 0.06 0.05 0.04 0.03 0.04 0.04 0.03 0.03 0.01 0.01 0.01 0.01 0.01 0.02 0.02 0.02 0.02 0.02 0.02 0.02 0.02 0.02 0.02 0.02 0.02 0.02
0.02 0.02 0.03 0.02 0.03 0.03 0.03 0.02 0.02 0.02 0.03 0.04 0.04 0.04 0.04 0.03 0.03 0.03 0.03 0.02 0.01 0.01 0.00 0.01 0.01 0.02 0.02 0.02 0.02 0.02 0.02 0.02 0.02 0.02 0.02 0.02 0.03 0.02
0.03 0.02 0.02 0.02 0.03 0.03 0.02 0.02 0.03 0.03 0.03 0.02 0.02 0.02 0.03 0.05 0.04 0.04 0.03 0.01 0.01 0.01 0.01 0.01 0.01 0.01 0.01 0.02 0.02 0.01 0.01 0.01 0.01 0.01 0.01 0.01 0.01 0.01
0.03 0.03 0.03 0.03 0.03 0.03 0.03 0.02 0.02 0.03 0.03 0.03 0.03 0.03 0.04 0.05 0.04 0.03 0.02 0.01 0.01 0.01 0.01 0.01 0.01 0.02 0.02 0.01 0.01 0.01 0.01 0.00 0.00 0.00 0.00 0.00 0.00 0.00
0.02 0.03 0.02 0.02 0.02 0.03 0.03 0.03 0.02 0.02 0.03 0.04 0.04 0.04 0.05 0.04 0.03 0.02 0.02 0.01 0.01 0.01 0.01 0.01 0.01 0.01 0.01 0.01 0.01 0.00 0.00 0.00 0.00 0.00 0.00 0.00 0.00 0.00
0.03 0.02 0.02 0.01 0.01 0.02 0.01 0.02 0.03 0.04 0.04 0.04 0.04 0.03 0.03 0.02 0.03 0.03 0.03 0.03 0.01 0.01 0.01 0.01 0.01 0.01 0.01 0.01 0.01 0.00 0.00 0.00 0.00 0.00 0.00 0.00 0.00 0.00
0.03 0.02 0.02 0.02 0.02 0.02 0.02 0.03 0.03 0.03 0.02 0.02 0.02 0.02 0.02 0.01 0.02 0.02 0.03 0.03 0.02 0.01 0.00 0.00 0.00 0.00 0.00 0.00 0.01 0.00 0.00 0.00 0.00 0.00 0.00 0.00 0.00 0.00
0.02 0.01 0.02 0.02 0.02 0.02 0.02 0.02 0.02 0.02 0.02 0.02 0.01 0.01 0.02 0.03 0.02 0.02 0.02 0.01 0.01 0.01 0.00 0.00 0.00 0.00 0.00 0.00 0.01 0.00 0.00 0.00 0.00 0.00 0.00 0.00 0.00 0.00
0.01 0.02 0.02 0.02 0.02 0.01 0.02 0.02 0.02 0.02 0.02 0.02 0.02 0.01 0.02 0.02 0.02 0.01 0.01 0.01 0.01 0.01 0.01 0.00 0.00 0.00 0.00 0.00 0.00 0.00 0.00 0.00 0.00 0.00 0.00 0.00 0.00 0.00
0.03 0.02 0.02 0.02 0.02 0.02 0.03 0.03 0.02 0.01 0.01 0.01 0.01 0.01 0.01 0.01 0.01 0.01 0.00 0.00 0.01 0.01 0.00 0.00 0.00 0.00 0.00 0.00 0.00 0.00 0.00 0.00 0.00 0.00 0.00 0.00 0.00 0.00
0.04 0.03 0.02 0.02 0.02 0.02 0.03 0.03 0.02 0.02 0.02 0.01 0.01 0.01 0.01 0.00 0.00 0.00 0.00 0.00 0.00 0.00 0.00 0.00 0.00 0.00 0.00 0.00 0.00 0.00 0.00 0.00 0.00 0.00 0.00 0.00 0.00 0.00
0.03 0.03 0.02 0.02 0.02 0.02 0.02 0.01 0.01 0.01 0.01 0.00 0.01 0.00 0.00 0.00 0.00 0.00 0.00 0.00 0.00 0.00 0.00 0.00 0.00 0.00 0.00 0.00 0.00 0.00 0.00 0.00 0.00 0.00 0.00 0.00 0.00 0.00
0.02 0.02 0.01 0.01 0.01 0.01 0.01 0.01 0.00 0.00 0.00 0.00 0.00 0.00 0.00 0.00 0.00 0.00 0.00 0.00 0.00 0.00 0.00 0.00 0.00 0.00 0.00 0.00 0.00 0.00 0.00 0.00 0.00 0.00 0.00 0.00 0.00 0.00
0.01 0.01 0.01 0.01 0.01 0.01 0.01 0.00 0.00 0.00 0.00 0.00 0.00 0.00 0.00 0.00 0.00 0.00 0.00 0.00 0.00 0.00 0.00 0.00 0.00 0.00 0.00 0.00 0.00 0.00 0.00 0.00 0.00 0.00 0.00 0.00 0.00 0.00
0.01 0.01 0.01 0.00 0.00 0.00 0.00 0.00 0.00 0.00 0.00 0.00 0.00 0.00 0.00 0.00 0.00 0.00 0.00 0.00 0.00 0.00 0.00 0.00 0.00 0.00 0.00 0.00 0.00 0.00 0.00 0.00 0.00 0.00 0.00 0.00 0.00 0.00
0.01 0.00 0.00 0.00 0.00 0.00 0.00 0.00 0.00 0.00 0.00 0.00 0.00 0.00 0.00 0.00 0.00 0.00 0.00 0.00 0.00 0.00 0.00 0.00 0.00 0.00 0.00 0.00 0.00 0.00 0.00 0.00 0.00 0.00 0.00 0.00 0.00 0.00
0.00 0.00 0.00 0.00 0.00 0.00 0.00 0.00 0.00 0.00 0.00 0.00 0.00 0.00 0.00 0.00 0.00 0.00 0.00 0.00 0.00 0.00 0.00 0.00 0.00 0.00 0.00 0.00 0.00 0.00 0.00 0.00 0.00 0.00 0.00 0.00 0.00 0.00
MSLP
1018.26 1018.40 1018.48 1018.48 1018.36 1018.14 1017.85 1017.54 1017.27 1017.11 1017.10 1017.28 1017.66 1018.21 1018.88 1019.63 1020.39 1021.12 1021.78 1022.37 1022.87 1023.31 1023.70 1024.06 1024.40 1024.72 1025.03 1025.31 1025.57 1025.78 1025.96 1026.11 1026.23 1026.32 1026.39 1026.44 1026.45 1026.41
1018.41 1018.45 1018.41 1018.28 1018.05 1017.74 1017.39 1017.06 1016.80 1016.70 1016.77 1017.06 1017.56 1018.23 1019.01 1019.84 1020.67 1021.44 1022.12 1022.70 1023.18 1023.58 1023.93 1024.26 1024.56 1024.86 1025.14 1025.40 1025.64 1025.84 1026.00 1026.12 1026.21 1026.27 1026.30 1026.30 1026.27 1026.21
1018.59 1018.51 1018.36 1018.11 1017.77 1017.38 1016.98 1016.63 1016.40 1016.36 1016.53 1016.92 1017.53 1018.32 1019.20 1020.12 1021.00 1021.80 1022.49 1023.06 1023.51 1023.87 1024.17 1024.44 1024.69 1024.94 1025.19 1025.42 1025.63 1025.80 1025.93 1026.02 1026.08 1026.09 1026.09 1026.05 1025.99 1025.89
1018.79 1018.63 1018.38 1018.03 1017.62 1017.16 1016.73 1016.38 1016.19 1016.20 1016.45 1016.94 1017.64 1018.52 1019.48 1020.46 1021.39 1022.21 1022.89 1023.43 1023.84 1024.14 1024.38 1024.59 1024.78 1024.97 1025.16 1025.34 1025.51 1025.64 1025.73 1025.79 1025.81 1025.79 1025.75 1025.69 1025.60 1025.49
1019.05 1018.83 1018.52 1018.12 1017.65 1017.17 1016.73 1016.40 1016.24 1016.30 1016.61 1017.16 1017.93 1018.86 1019.87 1020.87 1021.81 1022.62 1023.28 1023.78 1024.14 1024.38 1024.55 1024.68 1024.79 1024.91 1025.03 1025.15 1025.26 1025.35 1025.40 1025.42 1025.41 1025.37 1025.31 1025.24 1025.14 1025.03
1019.37 1019.13 1018.80 1018.38 1017.92 1017.44 1017.03 1016.72 1016.60 1016.70 1017.04 1017.63 1018.41 1019.35 1020.35 1021.33 1022.24 1023.02 1023.63 1024.07 1024.36 1024.53 1024.63 1024.68 1024.71 1024.75 1024.80 1024.85 1024.90 1024.94 1024.95 1024.94 1024.91 1024.85 1024.79 1024.71 1024.62 1024.52
1019.75 1019.52 1019.21 1018.83 1018.41 1017.99 1017.61 1017.36 1017.27 1017.39 1017.74 1018.31 1019.06 1019.95 1020.89 1021.81 1022.65 1023.35 1023.89 1024.27 1024.49 1024.59 1024.60 1024.58 1024.53 1024.49 1024.47 1024.45 1024.45 1024.43 1024.41 1024.37 1024.32 1024.26 1024.20 1024.12 1024.05 1023.97
1020.14 1019.97 1019.73 1019.42 1019.08 1018.74 1018.44 1018.24 1018.18 1018.30 1018.62 1019.14 1019.81 1020.60 1021.44 1022.25 1022.99 1023.59 1024.05 1024.34 1024.49 1024.52 1024.47 1024.38 1024.27 1024.17 1024.08 1024.01 1023.94 1023.89 1023.83 1023.76 1023.70 1023.63 1023.57 1023.50 1023.44 1023.38
1020.53 1020.43 1020.28 1020.08 1019.85 1019.61 1019.39 1019.25 1019.22 1019.33 1019.60 1020.03 1020.60 1021.25 1021.95 1022.63 1023.23 1023.72 1024.08 1024.30 1024.38 1024.36 1024.26 1024.12 1023.97 1023.81 1023.68 1023.56 1023.45 1023.35 1023.26 1023.17 1023.09 1023.01 1022.93 1022.87 1022.81 1022.74
1020.88 1020.87 1020.83 1020.75 1020.63 1020.50 1020.37 1020.29 1020.27 1020.36 1020.57 1020.90 1021.33 1021.83 1022.37 1022.90 1023.36 1023.74 1024.00 1024.15 1024.18 1024.12 1024.00 1023.84 1023.66 1023.48 1023.32 1023.16 1023.02 1022.89 1022.77 1022.65 1022.53 1022.43 1022.33 1022.24 1022.16 1022.07
1021.19 1021.27 1021.32 1021.35 1021.35 1021.32 1021.27 1021.23 1021.23 1021.29 1021.42 1021.64 1021.94 1022.30 1022.68 1023.06 1023.40 1023.66 1023.85 1023.94 1023.94 1023.86 1023.74 1023.58 1023.40 1023.22 1023.04 1022.87 1022.71 1022.55 1022.39 1022.23 1022.08 1021.92 1021.78 1021.64 1021.51 1021.37
1021.46 1021.61 1021.75 1021.87 1021.96 1022.00 1022.01 1022.01 1022.01 1022.04 1022.11 1022.23 1022.40 1022.63 1022.88 1023.12 1023.35 1023.53 1023.65 1023.71 1023.69 1023.62 1023.51 1023.37 1023.21 1023.04 1022.87 1022.69 1022.51 1022.32 1022.13 1021.93 1021.72 1021.51 1021.30 1021.09 1020.88 1020.66
1021.73 1021.92 1022.12 1022.29 1022.43 1022.52 1022.57 1022.59 1022.58 1022.58 1022.59 1022.63 1022.71 1022.83 1022.97 1023.12 1023.26 1023.37 1023.45 1023.48 1023.47 1023.42 1023.33 1023.21 1023.08 1022.93 1022.77 1022.60 1022.41 1022.20 1021.97 1021.72 1021.46 1021.17 1020.88 1020.58 1020.27 1019.96
1022.00 1022.22 1022.43 1022.62 1022.78 1022.88 1022.94 1022.96 1022.94 1022.91 1022.88 1022.86 1022.88 1022.92 1022.99 1023.07 1023.15 1023.22 1023.27 1023.29 1023.28 1023.24 1023.18 1023.09 1022.99 1022.86 1022.72 1022.55 1022.36 1022.13 1021.86 1021.56 1021.23 1020.87 1020.49 1020.09 1019.69 1019.28
1022.30 1022.50 1022.69 1022.87 1023.01 1023.10 1023.14 1023.14 1023.10 1023.05 1023.00 1022.95 1022.93 1022.93 1022.96 1023.00 1023.04 1023.08 1023.11 1023.12 1023.11 1023.08 1023.03 1022.97 1022.88 1022.77 1022.64 1022.47 1022.27 1022.02 1021.72 1021.38 1020.99 1020.56 1020.09 1019.60 1019.10 1018.59
1022.59 1022.76 1022.91 1023.03 1023.13 1023.18 1023.19 1023.16 1023.11 1023.05 1022.99 1022.94 1022.90 1022.89 1022.89 1022.91 1022.93 1022.95 1022.96 1022.96 1022.94 1022.90 1022.85 1022.79 1022.70 1022.60 1022.46 1022.30 1022.08 1021.81 1021.49 1021.10 1020.66 1020.17 1019.64 1019.07 1018.48 1017.89
1022.86 1022.96 1023.05 1023.11 1023.14 1023.14 1023.11 1023.07 1023.00 1022.94 1022.89 1022.84 1022.82 1022.81 1022.81 1022.82 1022.82 1022.82 1022.80 1022.78 1022.73 1022.68 1022.61 1022.52 1022.43 1022.31 1022.17 1021.98 1021.75 1021.46 1021.11 1020.70 1020.22 1019.68 1019.09 1018.46 1017.81 1017.15
1023.04 1023.08 1023.09 1023.08 1023.05 1023.00 1022.94 1022.87 1022.81 1022.76 1022.72 1022.70 1022.70 1022.70 1022.71 1022.71 1022.70 1022.68 1022.63 1022.57 1022.49 1022.40 1022.29 1022.18 1022.05 1021.91 1021.74 1021.54 1021.28 1020.97 1020.59 1020.15 1019.63 1019.05 1018.42 1017.75 1017.05 1016.34
1023.10 1023.07 1023.02 1022.95 1022.86 1022.76 1022.68 1022.60 1022.55 1022.52 1022.51 1022.52 1022.54 1022.56 1022.58 1022.58 1022.56 1022.51 1022.44 1022.33 1022.21 1022.08 1021.93 1021.78 1021.62 1021.44 1021.24 1021.00 1020.72 1020.37 1019.96 1019.48 1018.93 1018.32 1017.65 1016.94 1016.21 1015.47
1023.02 1022.93 1022.82 1022.70 1022.57 1022.45 1022.35 1022.28 1022.24 1022.24 1022.26 1022.30 1022.35 1022.39 1022.42 1022.42 1022.38 1022.31 1022.21 1022.07 1021.91 1021.74 1021.56 1021.36 1021.16 1020.95 1020.71 1020.44 1020.12 1019.73 1019.28 1018.76 1018.17 1017.52 1016.81 1016.07 1015.31 1014.54
1022.80 1022.67 1022.52 1022.36 1022.20 1022.07 1021.97 1021.92 1021.90 1021.92 1021.97 1022.04 1022.11 1022.17 1022.21 1022.20 1022.16 1022.08 1021.95 1021.80 1021.61 1021.41 1021.20 1020.98 1020.75 1020.50 1020.22 1019.90 1019.54 1019.11 1018.61 1018.04 1017.40 1016.70 1015.95 1015.17 1014.38 1013.59
1022.47 1022.30 1022.12 1021.95 1021.79 1021.66 1021.57 1021.52 1021.52 1021.57 1021.64 1021.73 1021.82 1021.89 1021.93 1021.93 1021.88 1021.80 1021.67 1021.50 1021.31 1021.10 1020.88 1020.64 1020.39 1020.11 1019.80 1019.44 1019.02 1018.53 1017.97 1017.34 1016.64 1015.89 1015.09 1014.27 1013.45 1012.65
1022.06 1021.87 1021.68 1021.50 1021.34 1021.22 1021.14 1021.11 1021.13 1021.18 1021.27 1021.36 1021.46 1021.53 1021.58 1021.58 1021.54 1021.46 1021.34 1021.18 1021.00 1020.80 1020.58 1020.34 1020.07 1019.77 1019.42 1019.02 1018.55 1018.00 1017.38 1016.68 1015.92 1015.11 1014.26 1013.40 1012.56 1011.74
Thickness
5640 5640 5641 5642 5642 5642 5642 5641 5637 5633 5632 5631 5631 5631 5631 5631 5630 5630 5629 5629 5628 5627 5627 5626 5624 5622 5620 5617 5614 5611 5608 5605 5602 5599 5595 5591 5588 5584
5632 5633 5633 5634 5635 5635 5635 5635 5634 5632 5627 5625 5624 5623 5623 5622 5621 5621 5621 5620 5619 5618 5617 5616 5614 5612 5610 5608 5605 5602 5599 5596 5594 5590 5587 5583 5580 5577
5624 5625 5626 5627 5627 5628 5628 5627 5626 5626 5622 5618 5617 5616 5615 5614 5613 5612 5612 5611 5609 5608 5607 5606 5605 5603 5600 5599 5597 5594 5591 5588 5586 5583 5580 5577 5574 5572
5615 5617 5618 5619 5620 5620 5620 5620 5619 5619 5617 5613 5609 5608 5606 5606 5605 5604 5602 5601 5600 5599 5598 5597 5596 5594 5592 5590 5589 5587 5585 5582 5579 5577 5575 5572 5569 5567
5607 5608 5609 5611 5611 5612 5612 5612 5612 5612 5611 5608 5604 5601 5599 5599 5598 5596 5594 5593 5592 5591 5590 5589 5588 5587 5586 5584 5583 5581 5579 5577 5575 5572 5570 5568 5565 5563
5599 5600 5601 5603 5604 5605 5605 5604 5604 5603 5602 5600 5597 5594 5592 5591 5590 5588 5586 5585 5585 5584 5584 5583 5582 5581 5580 5579 5578 5577 5575 5573 5571 5569 5567 5565 5563 5560
5592 5592 5593 5595 5597 5598 5598 5597 5597 5596 5594 5592 5590 5588 5586 5584 5583 5582 5580 5578 5578 5578 5577 5577 5577 5576 5576 5575 5574 5573 5571 5570 5568 5566 5564 5563 5561 5559
5583 5584 5586 5587 5589 5590 5590 5591 5591 5591 5589 5587 5585 5583 5581 5580 5578 5577 5574 5572 5571 5573 5572 5572 5573 5572 5573 5572 5572 5571 5570 5568 5567 5565 5563 5562 5560 5558
5576 5577 5579 5579 5580 5581 5582 5583 5584 5584 5584 5583 5581 5579 5577 5576 5575 5572 5570 5569 5568 5570 5569 5568 5569 5569 5571 5571 5571 5570 5569 5568 5566 5565 5563 5562 5560 5559
5569 5570 5571 5572 5573 5574 5574 5575 5575 5576 5577 5577 5577 5576 5575 5574 5573 5572 5569 5567 5567 5567 5567 5565 5566 5567 5570 5571 5571 5570 5569 5568 5567 5566 5564 5563 5561 5560
5563 5564 5565 5565 5566 5568 5568 5568 5568 5569 5571 5572 5572 5572 5572 5571 5570 5568 5565 5564 5563 5564 5565 5564 5564 5565 5567 5569 5571 5571 5570 5569 5568 5567 5565 5564 5563 5561
5557 5558 5560 5560 5561 5562 5563 5563 5563 5563 5565 5566 5567 5567 5568 5567 5567 5567 5565 5563 5561 5561 5564 5563 5563 5563 5563 5568 5570 5571 5571 5570 5569 5569 5568 5566 5565 5561
5552 5553 5555 5557 5558 5559 5559 5560 5560 5561 5561 5562 5562 5563 5564 5565 5565 5566 5566 5565 5563 5563 5565 5564 5563 5561 5561 5563 5567 5570 5570 5570 5570 5570 5569 5568 5566 5563
5549 5550 5552 5554 5555 5556 5556 5557 5558 5558 5558 5558 5559 5559 5561 5562 5564 5565 5566 5566 5566 5567 5568 5566 5564 5563 5561 5561 5563 5568 5570 5571 5570 5570 5570 5569 5568 5566
5547 5549 5550 5551 5552 5553 5554 5555 5556 5556 5556 5556 5557 5558 5560 5562 5563 5564 5565 5566 5567 5568 5569 5569 5568 5566 5564 5562 5563 5565 5566 5570 5571 5570 5570 5569 5568 5567
5545 5547 5548 5550 5551 5552 5552 5553 5555 5555 5555 5556 5556 5558 5560 5561 5561 5562 5563 5564 5565 5568 5571 5572 5571 5569 5566 5566 5564 5565 5566 5566 5570 5571 5569 5569 5569 5568
5542 5544 5545 5546 5548 5549 5551 5552 5554 5555 5555 5556 5557 5558 5559 5560 5561 5563 5563 5564 5563 5565 5568 5572 5572 5571 5570 5568 5567 5568 5569 5569 5571 5571 5568 5567 5569 5569
5542 5542 5543 5545 5547 5549 5550 5552 5554 5556 5557 5558 5558 5559 5560 5561 5562 5563 5564 5564 5564 5565 5566 5569 5570 5569 5569 5571 5572 5570 5571 5571 5572 5571 5568 5565 5567 5570
5542 5543 5544 5546 5548 5550 5552 5554 5556 5558 5559 5559 5560 5561 5562 5563 5563 5564 5565 5565 5565 5566 5568 5568 5568 5566 5565 5566 5573 5575 5571 5572 5571 5569 5568 5566 5565 5568
5543 5544 5546 5549 5551 5552 5554 5556 5558 5559 5560 5561 5562 5563 5564 5564 5565 5565 5565 5566 5566 5567 5568 5569 5569 5568 5566 5567 5570 5574 5575 5572 5569 5568 5568 5568 5566 5567
5546 5547 5550 5552 5554 5556 5558 5560 5561 5561 5562 5563 5564 5565 5566 5566 5566 5566 5567 5568 5567 5567 5567 5569 5573 5573 5571 5569 5567 5570 5574 5575 5572 5568 5566 5563 5562 5561
5550 5552 5555 5557 5559 5561 5562 5563 5563 5564 5565 5565 5566 5567 5568 5568 5568 5568 5568 5568 5568 5568 5569 5572 5574 5572 5570 5568 5568 5569 5571 5574 5574 5571 5567 5563 5558 5555
5556 5558 5560 5562 5564 5565 5566 5566 5567 5568 5568 5569 5570 5570 5570 5570 5570 5570 5570 5570 5570 5570 5570 5571 5571 5571 5570 5569 5567 5567 5568 5568 5568 5567 5567 5566 5562 5559